Regional Weather Roundup
Issued by NWS Sioux Falls, SD

Home | Current Version | Previous Version | Text Only | Print | Product List | Glossary On
Versions: 1 2 3 4 5 6 7 8 9 10 11 12 13 14 15 16 17 18 19 20 21 22 23 24 25 26 27 28 29 30 31 32 33 34 35 36 37 38 39 40 41 42 43 44 45 46 47 48 49 50
000
ASUS43 KFSD 240110
RWRFSD

WEATHER ROUNDUP FOR SE SOUTH DAKOTA/SW MINNESOTA/NW IOWA
NATIONAL WEATHER SERVICE SIOUX FALLS SD
800 PM CDT SAT JUL 23 2016

NOTE: "FAIR" INDICATES FEW OR NO CLOUDS BELOW 12,000 FEET WITH NO
SIGNIFICANT WEATHER AND OR OBSTRUCTIONS TO VISIBILITY.


SDZ038>040-050-052>070-240200-
SOUTHEAST SOUTH DAKOTA

CITY           SKY/WX    TMP DP  RH WIND       PRES   REMARKS
BROOKINGS      CLEAR     87  78  74 S7        29.75R HX 100
CHAMBERLAIN    SUNNY     90  68  47 N17G25    29.80R
HURON          PTSUNNY   87  74  64 N22G28    29.74R HX  95
MADISON        FAIR      84  82  94 S6        29.76R HX 101
MITCHELL       MOCLDY    91  77  63 E5        29.71R HX 104
SIOUX FALLS    PTCLDY    89  73  59 SW6       29.74S HX  97
WINNER         FAIR      91  59  33 N18       29.84R
YANKTON        CLEAR     90  75  62 S7        29.71S HX 100
$$

MNZ071-072-080-081-089-090-097-098-240200-
SOUTHWEST MINNESOTA

CITY           SKY/WX    TMP DP  RH WIND       PRES   REMARKS
FAIRMONT       CLEAR     82  75  78 S9        29.76S
JACKSON        CLEAR     84  73  70 S7        29.79R
LUVERNE        PTCLDY    84  77  79 S7        29.75F
MARSHALL       PTCLDY    87  79  76 S7        29.73S HX 101
MONTEVIDEO     CLEAR     82  77  83 SE10      29.75S
REDWOOD FALLS  CLOUDY    84  76  76 SE10      29.74R
TRACY          PTCLDY    86  80  84 CALM      29.75R HX 101
WINDOM         PTCLDY    84  75  74 S8        29.78R
WORTHINGTON    CLEAR     84  77  79 MISG      29.78S
$$

IAZ001>003-012>014-020>022-031-032-NEZ013-014-SDZ071-240200-
NORTHWEST IOWA

CITY           SKY/WX    TMP DP  RH WIND       PRES   REMARKS
CHEROKEE       CLOUDY    85  79  82 S7        29.77S HX  98
DENISON        CLEAR     84  77  79 S8        29.77S
ESTHERVILLE    CLEAR     82  78  88 S7        29.77S
LE MARS        CLOUDY    86  77  74 S10       29.76S HX  97
SHELDON        CLEAR     84  79  84 S8        29.76S HX  96
SIOUX CITY     CLOUDY    89  77  67 SE8       29.74S HX 101
SPENCER        CLEAR     84  76  76 S10       29.78R
STORM LAKE       N/A     82  79  89 S12       29.79F
$$

ABBREVIATIONS USED IN REMARKS
   TC - TEMPERATURE IN CELSIUS
  WCI - WIND CHILL INDEX
   HX - HEAT INDEX
  VSB - VISIBILITY





USA.gov is the U.S. government's official web portal to all federal, state and local government web resources and services.